Terminal Aerodrome Forecast
Issued by NWS

Home | Current Version | Previous Version | Text Only | Print | Product List | Glossary On
Versions: 1 2 3 4 5 6 7 8 9 10 11 12 13 14 15 16 17 18 19 20 21 22 23 24 25 26 27 28 29 30 31 32 33 34 35 36 37 38 39 40 41 42 43 44
000
FTUS45 KCYS 241731
TAFLAR
TAF
KLAR 241731Z 2418/2518 21010KT P6SM VCTS BKN050CB
      TEMPO 2418/2422 4SM -TSRA BKN015CB
     FM250300 28006KT P6SM -SHRA SCT020 BKN035=

USA.gov is the U.S. government's official web portal to all federal, state and local government web resources and services.